Time,TemperatureF,DewpointF,PressureIn,WindDirection,WindDirectionDegrees,WindSpeedMPH,WindSpeedGustMPH,Humidity,HourlyPrecipIn,Conditions,Clouds,dailyrainin,SoftwareType,DateUTC
2013-03-21 00:07:00,18.8,13.0,30.25,WNW,298,1.0,-999.0,77,-99.99,,,0.00,weatherlink.com 1.10,2013-03-21 05:07:00,
2013-03-21 00:22:00,18.8,13.0,30.25,WNW,302,0.0,-999.0,77,-99.99,,,0.00,weatherlink.com 1.10,2013-03-21 05:22:00,
2013-03-21 00:39:00,18.5,13.0,30.24,NW,306,1.0,-999.0,78,-99.99,,,0.00,weatherlink.com 1.10,2013-03-21 05:39:00,
2013-03-21 00:52:00,18.4,12.0,30.24,NW,322,3.0,-999.0,76,-99.99,,,0.00,weatherlink.com 1.10,2013-03-21 05:52:00,
2013-03-21 01:07:00,18.4,12.0,30.23,North,355,3.0,-999.0,75,-99.99,,,0.00,weatherlink.com 1.10,2013-03-21 06:07:00,
2013-03-21 01:22:00,17.9,12.0,30.24,NW,324,2.0,-999.0,76,-99.99,,,0.00,weatherlink.com 1.10,2013-03-21 06:22:00,
2013-03-21 01:39:00,17.7,11.0,30.24,NNW,332,1.0,-999.0,76,-99.99,,,0.00,weatherlink.com 1.10,2013-03-21 06:39:00,
2013-03-21 01:52:00,17.2,11.0,30.24,NNW,345,0.0,-999.0,76,-99.99,,,0.00,weatherlink.com 1.10,2013-03-21 06:52:00,
2013-03-21 02:07:00,16.7,11.0,30.24,North,350,0.0,-999.0,77,-99.99,,,0.00,weatherlink.com 1.10,2013-03-21 07:07:00,
2013-03-21 02:23:00,16.3,10.0,30.24,North,350,0.0,-999.0,77,-99.99,,,0.00,weatherlink.com 1.10,2013-03-21 07:23:00,
2013-03-21 02:39:00,15.9,10.0,30.24,North,350,0.0,-999.0,77,-99.99,,,0.00,weatherlink.com 1.10,2013-03-21 07:39:00,
2013-03-21 02:53:00,14.8,10.0,30.23,North,350,0.0,-999.0,81,-99.99,,,0.00,weatherlink.com 1.10,2013-03-21 07:53:00,
2013-03-21 03:08:00,14.5,9.0,30.23,North,350,0.0,-999.0,80,-99.99,,,0.00,weatherlink.com 1.10,2013-03-21 08:08:00,
2013-03-21 03:23:00,14.4,9.0,30.23,North,350,0.0,-999.0,80,-99.99,,,0.00,weatherlink.com 1.10,2013-03-21 08:23:00,
2013-03-21 03:39:00,14.4,9.0,30.22,North,350,0.0,-999.0,79,-99.99,,,0.00,weatherlink.com 1.10,2013-03-21 08:39:00,
2013-03-21 03:53:00,14.3,8.0,30.22,NNW,344,0.0,-999.0,77,-99.99,,,0.00,weatherlink.com 1.10,2013-03-21 08:53:00,
2013-03-21 04:08:00,14.1,8.0,30.22,NNW,345,1.0,-999.0,76,-99.99,,,0.00,weatherlink.com 1.10,2013-03-21 09:08:00,
2013-03-21 04:23:00,14.0,8.0,30.21,NNW,346,0.0,-999.0,76,-99.99,,,0.00,weatherlink.com 1.10,2013-03-21 09:23:00,
2013-03-21 04:39:00,13.7,7.0,30.21,NNW,343,0.0,-999.0,76,-99.99,,,0.00,weatherlink.com 1.10,2013-03-21 09:39:00,
2013-03-21 04:53:00,13.3,7.0,30.21,NNW,343,0.0,-999.0,77,-99.99,,,0.00,weatherlink.com 1.10,2013-03-21 09:53:00,
2013-03-21 05:08:00,12.8,7.0,30.20,NNW,343,0.0,-999.0,79,-99.99,,,0.00,weatherlink.com 1.10,2013-03-21 10:08:00,
2013-03-21 05:24:00,12.6,7.0,30.20,NNW,343,0.0,-999.0,79,-99.99,,,0.00,weatherlink.com 1.10,2013-03-21 10:24:00,
2013-03-21 05:39:00,12.3,7.0,30.21,NNW,343,0.0,-999.0,80,-99.99,,,0.00,weatherlink.com 1.10,2013-03-21 10:39:00,
2013-03-21 05:54:00,11.9,7.0,30.21,NNW,343,0.0,-999.0,80,-99.99,,,0.00,weatherlink.com 1.10,2013-03-21 10:54:00,
2013-03-21 06:09:00,11.4,7.0,30.21,NNW,343,0.0,-999.0,82,-99.99,,,0.00,weatherlink.com 1.10,2013-03-21 11:09:00,
2013-03-21 06:24:00,11.3,7.0,30.21,NNW,343,0.0,-999.0,82,-99.99,,,0.00,weatherlink.com 1.10,2013-03-21 11:24:00,
2013-03-21 06:39:00,10.8,7.0,30.22,NNW,343,0.0,-999.0,83,-99.99,,,0.00,weatherlink.com 1.10,2013-03-21 11:39:00,
2013-03-21 06:54:00,10.6,7.0,30.22,NNW,343,0.0,-999.0,84,-99.99,,,0.00,weatherlink.com 1.10,2013-03-21 11:54:00,
2013-03-21 07:09:00,10.3,6.0,30.23,NNW,343,0.0,-999.0,84,-99.99,,,0.00,weatherlink.com 1.10,2013-03-21 12:09:00,
2013-03-21 07:24:00,10.2,6.0,30.23,NNW,343,0.0,-999.0,84,-99.99,,,0.00,weatherlink.com 1.10,2013-03-21 12:24:00,
2013-03-21 07:39:00,10.3,7.0,30.23,NNW,343,0.0,-999.0,85,-99.99,,,0.00,weatherlink.com 1.10,2013-03-21 12:39:00,
2013-03-21 08:09:00,12.0,8.0,30.23,NNW,343,0.0,-999.0,82,-99.99,,,0.00,weatherlink.com 1.10,2013-03-21 13:09:00,
2013-03-21 08:24:00,12.7,8.0,30.24,NNW,343,0.0,-999.0,81,-99.99,,,0.00,weatherlink.com 1.10,2013-03-21 13:24:00,
2013-03-21 08:40:00,13.7,8.0,30.23,NNW,343,0.0,-999.0,77,-99.99,,,0.00,weatherlink.com 1.10,2013-03-21 13:40:00,
2013-03-21 08:55:00,14.7,8.0,30.23,NNW,343,0.0,-999.0,73,-99.99,,,0.00,weatherlink.com 1.10,2013-03-21 13:55:00,
2013-03-21 09:10:00,15.9,8.0,30.23,NNW,345,0.0,-999.0,72,-99.99,,,0.00,weatherlink.com 1.10,2013-03-21 14:10:00,
2013-03-21 09:25:00,16.7,9.0,30.23,NNW,346,0.0,-999.0,72,-99.99,,,0.00,weatherlink.com 1.10,2013-03-21 14:25:00,
2013-03-21 09:40:00,18.8,11.0,30.23,NE,55,0.0,-999.0,71,-99.99,,,0.00,weatherlink.com 1.10,2013-03-21 14:40:00,
2013-03-21 09:55:00,19.0,10.0,30.23,ENE,70,0.0,-999.0,69,-99.99,,,0.00,weatherlink.com 1.10,2013-03-21 14:55:00,
2013-03-21 10:10:00,19.8,10.0,30.23,North,9,0.0,-999.0,67,-99.99,,,0.00,weatherlink.com 1.10,2013-03-21 15:10:00,
2013-03-21 10:25:00,20.9,11.0,30.23,NE,49,0.0,-999.0,66,-99.99,,,0.00,weatherlink.com 1.10,2013-03-21 15:25:00,
2013-03-21 10:40:00,22.3,12.0,30.22,SSE,165,1.0,-999.0,64,-99.99,,,0.00,weatherlink.com 1.10,2013-03-21 15:40:00,
2013-03-21 10:55:00,21.4,10.0,30.21,SSE,168,5.0,-999.0,61,-99.99,,,0.00,weatherlink.com 1.10,2013-03-21 15:55:00,
2013-03-21 11:10:00,22.5,10.0,30.21,South,176,5.0,-999.0,60,-99.99,,,0.00,weatherlink.com 1.10,2013-03-21 16:10:00,
2013-03-21 11:25:00,22.8,11.0,30.20,ESE,105,0.0,-999.0,60,-99.99,,,0.00,weatherlink.com 1.10,2013-03-21 16:25:00,
2013-03-21 11:41:00,24.0,11.0,30.20,South,180,4.0,-999.0,57,-99.99,,,0.00,weatherlink.com 1.10,2013-03-21 16:41:00,
2013-03-21 11:56:00,26.4,12.0,30.20,East,98,0.0,-999.0,55,-99.99,,,0.00,weatherlink.com 1.10,2013-03-21 16:56:00,
2013-03-21 12:11:00,26.6,11.0,30.19,NW,316,0.0,-999.0,53,-99.99,,,0.00,weatherlink.com 1.10,2013-03-21 17:11:00,
2013-03-21 12:26:00,28.2,13.0,30.19,ENE,76,1.0,-999.0,53,-99.99,,,0.00,weatherlink.com 1.10,2013-03-21 17:26:00,
2013-03-21 12:56:00,28.5,12.0,30.18,NNW,348,0.0,-999.0,50,-99.99,,,0.00,weatherlink.com 1.10,2013-03-21 17:56:00,
2013-03-21 13:11:00,30.2,14.0,30.17,East,82,4.0,-999.0,52,-99.99,,,0.00,weatherlink.com 1.10,2013-03-21 18:11:00,
2013-03-21 13:26:00,31.0,14.0,30.16,NE,37,0.0,-999.0,49,-99.99,,,0.00,weatherlink.com 1.10,2013-03-21 18:26:00,
2013-03-21 13:56:00,31.9,15.0,30.14,NE,34,3.0,-999.0,51,-99.99,,,0.00,weatherlink.com 1.10,2013-03-21 18:56:00,
2013-03-21 14:12:00,32.8,16.0,30.13,NNE,28,0.0,-999.0,50,-99.99,,,0.00,weatherlink.com 1.10,2013-03-21 19:12:00,
2013-03-21 14:27:00,32.9,15.0,30.13,NNE,31,0.0,-999.0,48,-99.99,,,0.00,weatherlink.com 1.10,2013-03-21 19:27:00,
2013-03-21 14:42:00,33.7,16.0,30.12,East,86,0.0,-999.0,48,-99.99,,,0.00,weatherlink.com 1.10,2013-03-21 19:42:00,
2013-03-21 14:57:00,33.9,16.0,30.11,NNE,30,0.0,-999.0,48,-99.99,,,0.00,weatherlink.com 1.10,2013-03-21 19:57:00,
2013-03-21 15:12:00,34.4,15.0,30.10,NE,39,1.0,-999.0,46,-99.99,,,0.00,weatherlink.com 1.10,2013-03-21 20:12:00,
2013-03-21 15:27:00,33.8,14.0,30.10,North,11,0.0,-999.0,45,-99.99,,,0.00,weatherlink.com 1.10,2013-03-21 20:27:00,
2013-03-21 15:42:00,34.2,16.0,30.10,NNE,12,0.0,-999.0,47,-99.99,,,0.00,weatherlink.com 1.10,2013-03-21 20:42:00,
2013-03-21 15:57:00,35.4,18.0,30.10,North,9,1.0,-999.0,49,-99.99,,,0.00,weatherlink.com 1.10,2013-03-21 20:57:00,
2013-03-21 16:12:00,35.9,18.0,30.09,East,91,0.0,-999.0,48,-99.99,,,0.00,weatherlink.com 1.10,2013-03-21 21:12:00,
2013-03-21 16:27:00,36.2,17.0,30.09,ENE,61,0.0,-999.0,45,-99.99,,,0.00,weatherlink.com 1.10,2013-03-21 21:27:00,
2013-03-21 16:42:00,36.3,16.0,30.09,North,5,2.0,-999.0,44,-99.99,,,0.00,weatherlink.com 1.10,2013-03-21 21:42:00,
2013-03-21 16:58:00,35.9,18.0,30.09,NNE,16,0.0,-999.0,48,-99.99,,,0.00,weatherlink.com 1.10,2013-03-21 21:58:00,
2013-03-21 17:13:00,36.0,17.0,30.08,NE,36,1.0,-999.0,47,-99.99,,,0.00,weatherlink.com 1.10,2013-03-21 22:13:00,
2013-03-21 17:28:00,35.6,17.0,30.08,NNE,24,3.0,-999.0,47,-99.99,,,0.00,weatherlink.com 1.10,2013-03-21 22:28:00,
2013-03-21 17:43:00,35.7,19.0,30.08,NNE,27,0.0,-999.0,51,-99.99,,,0.00,weatherlink.com 1.10,2013-03-21 22:43:00,
2013-03-21 17:58:00,35.3,18.0,30.08,NNE,31,0.0,-999.0,49,-99.99,,,0.00,weatherlink.com 1.10,2013-03-21 22:58:00,
2013-03-21 18:13:00,35.0,17.0,30.08,NE,40,0.0,-999.0,49,-99.99,,,0.00,weatherlink.com 1.10,2013-03-21 23:13:00,
2013-03-21 18:28:00,34.7,19.0,30.09,NE,40,1.0,-999.0,53,-99.99,,,0.00,weatherlink.com 1.10,2013-03-21 23:28:00,
2013-03-21 18:43:00,33.9,18.0,30.09,NE,46,0.0,-999.0,52,-99.99,,,0.00,weatherlink.com 1.10,2013-03-21 23:43:00,
2013-03-21 18:58:00,32.3,18.0,30.09,NE,46,2.0,-999.0,57,-99.99,,,0.00,weatherlink.com 1.10,2013-03-21 23:58:00,
2013-03-21 19:13:00,30.6,18.0,30.09,NE,46,2.0,-999.0,60,-99.99,,,0.00,weatherlink.com 1.10,2013-03-22 00:13:00,
2013-03-21 19:28:00,29.6,18.0,30.09,NE,46,1.0,-999.0,63,-99.99,,,0.00,weatherlink.com 1.10,2013-03-22 00:28:00,
2013-03-21 19:43:00,27.7,18.0,30.10,NE,46,0.0,-999.0,67,-99.99,,,0.00,weatherlink.com 1.10,2013-03-22 00:43:00,
2013-03-21 19:58:00,27.0,18.0,30.10,NE,46,0.0,-999.0,70,-99.99,,,0.00,weatherlink.com 1.10,2013-03-22 00:58:00,
2013-03-21 20:13:00,26.4,18.0,30.11,NE,46,1.0,-999.0,71,-99.99,,,0.00,weatherlink.com 1.10,2013-03-22 01:13:00,
2013-03-21 20:29:00,26.1,19.0,30.11,NE,46,1.0,-999.0,74,-99.99,,,0.00,weatherlink.com 1.10,2013-03-22 01:29:00,
2013-03-21 20:44:00,25.2,19.0,30.11,NE,46,0.0,-999.0,76,-99.99,,,0.00,weatherlink.com 1.10,2013-03-22 01:44:00,
2013-03-21 20:59:00,24.7,19.0,30.12,NE,46,0.0,-999.0,78,-99.99,,,0.00,weatherlink.com 1.10,2013-03-22 01:59:00,
2013-03-21 21:14:00,24.8,19.0,30.12,NE,46,1.0,-999.0,80,-99.99,,,0.00,weatherlink.com 1.10,2013-03-22 02:14:00,
2013-03-21 21:29:00,24.7,19.0,30.12,NE,46,2.0,-999.0,80,-99.99,,,0.00,weatherlink.com 1.10,2013-03-22 02:29:00,
2013-03-21 21:44:00,24.1,19.0,30.13,NE,46,1.0,-999.0,81,-99.99,,,0.00,weatherlink.com 1.10,2013-03-22 02:44:00,
2013-03-21 21:59:00,23.9,19.0,30.13,NE,46,0.0,-999.0,81,-99.99,,,0.00,weatherlink.com 1.10,2013-03-22 02:59:00,
2013-03-21 22:14:00,23.4,19.0,30.13,NE,46,0.0,-999.0,82,-99.99,,,0.00,weatherlink.com 1.10,2013-03-22 03:14:00,
2013-03-21 22:29:00,23.0,19.0,30.13,NE,46,0.0,-999.0,83,-99.99,,,0.00,weatherlink.com 1.10,2013-03-22 03:29:00,
2013-03-21 22:44:00,22.5,18.0,30.14,NE,46,2.0,-999.0,83,-99.99,,,0.00,weatherlink.com 1.10,2013-03-22 03:44:00,
2013-03-21 22:59:00,22.1,18.0,30.13,NE,46,0.0,-999.0,84,-99.99,,,0.00,weatherlink.com 1.10,2013-03-22 03:59:00,
2013-03-21 23:14:00,21.7,18.0,30.13,NE,46,0.0,-999.0,85,-99.99,,,0.00,weatherlink.com 1.10,2013-03-22 04:14:00,
2013-03-21 23:29:00,21.8,18.0,30.13,NE,46,1.0,-999.0,85,-99.99,,,0.00,weatherlink.com 1.10,2013-03-22 04:29:00,
2013-03-21 23:44:00,21.8,18.0,30.13,NE,46,2.0,-999.0,86,-99.99,,,0.00,weatherlink.com 1.10,2013-03-22 04:44:00,